Location: Bremen
(53.0793°N, 8.8017°E)
Time: 15:30:05
(UTC+01:00)

S-56A Canister/Altair - Pass Details

Date: 05 December 2021
Orbit: 634 x 2499 km, 38.9° (Epoch: 28 January)

Event Time Altitude Azimuth Distance (km) Brightness Sun altitude
Rises 01:40:41 0° 242° (WSW) 4,833 - -55.3°
Reaches altitude 10° 01:44:56 10° 231° (SW) 3,496 - -54.9°
Maximum altitude 01:51:22 25° 181° (S) 2,061 - -54.3°
Drops below altitude 10° 01:56:13 10° 128° (SE) 2,558 - -53.8°
Sets 01:58:48 0° 114° (ESE) 3,306 - -53.5°
